Tracking 25709 objects as of 23-May-2022
HD Live streaming from Space Station
objects crossing your sky now

COSMOS 2251 DEB

Track COSMOS 2251 DEB now!
10-day predictions


NORAD ID: 35702
Int'l Code: 1993-036APX
Perigee: 669.5 km
Apogee: 708.4 km
Inclination: 74.0 °
Period: 98.4 minutes
Semi major axis: 7059 km
RCS: 0.0046 m2 (small)
Launch date: June 16, 1993
Source: Commonwealth of Independent States (former USSR) (CIS)
Launch site: PLESETSK MISSILE AND SPACE COMPLEX (PKMTR)

Note: This is SATELLITE DEBRIS
aabbcc
Your satellite tracking list
Your tracking list is empty




NASA's NSSDC Master Catalog

Two Line Element Set (TLE):
1 35702U 93036APX 22142.69112333  .00014848  00000-0  28470-2 0  9995
2 35702  74.0400 267.7817 0027564 312.0689  47.8133 14.63524506470277
Source of the keplerian elements: AFSPC